Johann Essberger — CQKG — position and weather

sailwx.info

Track history (hours):
 
Tides and Currents Weather Stations Pressure Air Temp Water Temp Dewpoint Dewpoint Depression Visibility Wind Speed Wind Dir Waves Ship Positions

Johann Essberger

Last reported at 2014-Sep-01 22:33 UTC. Time now 2014-Sep-01 23:29 UTC.
Position N 55°12' E 013°29'.

Length 100 m; draft 6.4 m.

Type: Ship (hazmat cat B). MMSI: 255804460.

Date/timePositionNaut miles runAvg speedWind from/ knotsBaromVisibWave heightAir tempDewpointWater temp
2014-Sep-01 22:33N 55°12' E 013°29'1111.3
2014-Sep-01 21:33N 55°14' E 013°10'1110.8
2014-Sep-01 20:32N 55°15' E 012°51'9 9.2
2014-Sep-01 19:33N 55°21' E 012°38'1110.8
2014-Sep-01 18:33N 55°31' E 012°44'1010.1
2014-Sep-01 17:33N 55°39' E 012°56'1110.7
2014-Sep-01 16:34N 55°48' E 012°46'1110.7
2014-Sep-01 15:34N 55°58' E 012°41'9 9.2
2014-Sep-01 14:34N 56°06' E 012°32'10 9.8
2014-Sep-01 13:34N 56°12' E 012°18'1111.3
2014-Sep-01 12:33N 56°19' E 012°03'1111.3
2014-Sep-01 11:33N 56°30' E 011°58'1111.0
2014-Sep-01 10:33N 56°41' E 011°54'1111.3
2014-Sep-01 09:33N 56°52' E 011°47'1111.4
2014-Sep-01 08:33N 57°03' E 011°41'1111.2
2014-Sep-01 07:33N 57°13' E 011°33'1110.9
2014-Sep-01 06:33N 57°23' E 011°27'1110.8
2014-Sep-01 05:33N 57°34' E 011°24'1110.8
2014-Sep-01 04:33N 57°45' E 011°24'9 9.5
2014-Sep-01 03:33N 57°54' E 011°31'1312.7
2014-Sep-01 02:33N 58°03' E 011°47'2 0.2
2014-Aug-31 11:11N 58°05' E 011°49'0 0.0
2014-Aug-30 14:06N 58°05' E 011°49'4 7.5
2014-Aug-30 13:33N 58°01' E 011°47'1313.1
2014-Aug-30 12:34N 57°53' E 011°29'1110.8
2014-Aug-30 11:34N 57°50' E 011°09'1010.5
2014-Aug-30 10:34N 57°49' E 010°50'1110.8
2014-Aug-30 09:33N 57°47' E 010°29'1211.7
2014-Aug-30 08:33N 57°43' E 010°09'28411.8
2014-Aug-29 08:33N 53°60' E 004°56'3012.5
2014-Aug-29 06:10N 53°31' E 004°47'813.2
2014-Aug-29 05:33N 53°23' E 004°42'1713.3
2014-Aug-29 04:18N 53°08' E 004°30'1012.7
2014-Aug-29 03:33N 52°60' E 004°22'1212.0
2014-Aug-29 02:33N 52°49' E 004°13'1211.5
2014-Aug-29 01:33N 52°40' E 004°01'2410.8
2014-Aug-28 23:20N 52°21' E 003°37'810.4
2014-Aug-28 22:33N 52°13' E 003°34'1010.0
2014-Aug-28 21:33N 52°05' E 003°25'3010.0
2014-Aug-28 18:33N 51°35' E 003°24'1414.1
2014-Aug-28 17:33N 51°25' E 003°40'6 5.6
2014-Aug-28 16:33N 51°21' E 003°46'0 0.0
2014-Aug-28 15:30N 51°21' E 003°46'0 0.0
2014-Aug-27 22:16N 51°21' E 003°46'0 0.0
2014-Aug-27 21:33N 51°21' E 003°46'7 7.0
2014-Aug-27 20:34N 51°26' E 003°39'2 1.8
2014-Aug-27 19:31N 51°25' E 003°37'0 0.0
2014-Aug-27 18:22N 51°25' E 003°37'0 0.0
2014-Aug-27 17:28N 51°25' E 003°37'0 0.0
2014-Aug-27 16:31N 51°25' E 003°37'0 0.0
2014-Aug-27 15:28N 51°25' E 003°37'0 0.1
2014-Aug-27 14:28N 51°25' E 003°37'0 0.0
2014-Aug-27 13:28N 51°25' E 003°37'0 0.0
2014-Aug-27 12:28N 51°25' E 003°37'0 0.0
2014-Aug-27 11:28N 51°25' E 003°37'0 0.0
2014-Aug-27 10:28N 51°25' E 003°37'0 0.0
2014-Aug-27 09:31N 51°25' E 003°37'0 0.1
2014-Aug-27 08:22N 51°25' E 003°37'0 0.0
2014-Aug-27 07:28N 51°25' E 003°37'0 0.0
2014-Aug-27 06:28N 51°25' E 003°37'0 0.0
2014-Aug-27 05:33N 51°25' E 003°37'0 0.0
2014-Aug-27 04:30N 51°25' E 003°37'0 0.0
2014-Aug-27 03:33N 51°25' E 003°37'0 0.1
2014-Aug-27 02:32N 51°25' E 003°37'0 0.0
2014-Aug-27 01:32N 51°25' E 003°37'0 0.1
2014-Aug-27 00:33N 51°25' E 003°37'6 6.0
2014-Aug-26 23:33N 51°22' E 003°45'1 0.1
2014-Aug-26 09:34N 51°21' E 003°46'6 5.9
2014-Aug-26 08:34N 51°25' E 003°40'8 8.1
2014-Aug-26 07:34N 51°21' E 003°51'1111.1
2014-Aug-26 06:33N 51°22' E 004°08'8 8.5
2014-Aug-26 05:33N 51°16' E 004°17'1 1.0
2014-Aug-26 04:33N 51°16' E 004°15'1 1.4
2014-Aug-26 03:32N 51°16' E 004°13'0 0.0
2014-Aug-25 13:05N 51°16' E 004°13'0 0.0
2014-Aug-25 12:33N 51°16' E 004°13'2 1.5
2014-Aug-25 11:30N 51°16' E 004°15'0 0.0
2014-Aug-24 14:10N 51°16' E 004°15'0 0.5
2014-Aug-24 13:33N 51°16' E 004°16'1 0.7
2014-Aug-24 12:33N 51°16' E 004°17'9 8.8
2014-Aug-24 11:33N 51°24' E 004°11'1010.5
2014-Aug-24 10:33N 51°22' E 003°54'1413.6
2014-Aug-24 09:33N 51°26' E 003°34'1413.8
2014-Aug-24 08:32N 51°38' E 003°21'48 9.7
2014-Aug-24 03:33N 51°59' E 002°10'8 8.6
2014-Aug-24 02:33N 52°07' E 002°06'8 8.3
2014-Aug-24 01:33N 52°15' E 002°08'7 7.2
2014-Aug-24 00:33N 52°22' E 002°10'6 6.4
2014-Aug-23 23:33N 52°28' E 002°14'  
Track history (hours):
 
Tides and Currents Weather Stations Pressure Air Temp Water Temp Dewpoint Dewpoint Depression Visibility Wind Speed Wind Dir Waves Ship Positions

Johann Essberger

Last reported at 2014-Sep-01 22:33 UTC. Time now 2014-Sep-01 23:29 UTC.
Position N 55°12' E 013°29'.

Length 100 m; draft 6.4 m.

Type: Ship (hazmat cat B). MMSI: 255804460.

Date/timePositionNaut miles runAvg speedWind from/ knotsBaromVisibWave heightAir tempDewpointWater temp
2014-Sep-01 22:33N 55°12' E 013°29'1111.3
2014-Sep-01 21:33N 55°14' E 013°10'1110.8
2014-Sep-01 20:32N 55°15' E 012°51'9 9.2
2014-Sep-01 19:33N 55°21' E 012°38'1110.8
2014-Sep-01 18:33N 55°31' E 012°44'1010.1
2014-Sep-01 17:33N 55°39' E 012°56'1110.7
2014-Sep-01 16:34N 55°48' E 012°46'1110.7
2014-Sep-01 15:34N 55°58' E 012°41'9 9.2
2014-Sep-01 14:34N 56°06' E 012°32'10 9.8
2014-Sep-01 13:34N 56°12' E 012°18'1111.3
2014-Sep-01 12:33N 56°19' E 012°03'1111.3
2014-Sep-01 11:33N 56°30' E 011°58'1111.0
2014-Sep-01 10:33N 56°41' E 011°54'1111.3
2014-Sep-01 09:33N 56°52' E 011°47'1111.4
2014-Sep-01 08:33N 57°03' E 011°41'1111.2
2014-Sep-01 07:33N 57°13' E 011°33'1110.9
2014-Sep-01 06:33N 57°23' E 011°27'1110.8
2014-Sep-01 05:33N 57°34' E 011°24'1110.8
2014-Sep-01 04:33N 57°45' E 011°24'9 9.5
2014-Sep-01 03:33N 57°54' E 011°31'1312.7
2014-Sep-01 02:33N 58°03' E 011°47'2 0.2
2014-Aug-31 11:11N 58°05' E 011°49'0 0.0
2014-Aug-30 14:06N 58°05' E 011°49'4 7.5
2014-Aug-30 13:33N 58°01' E 011°47'1313.1
2014-Aug-30 12:34N 57°53' E 011°29'1110.8
2014-Aug-30 11:34N 57°50' E 011°09'1010.5
2014-Aug-30 10:34N 57°49' E 010°50'1110.8
2014-Aug-30 09:33N 57°47' E 010°29'1211.7
2014-Aug-30 08:33N 57°43' E 010°09'28411.8
2014-Aug-29 08:33N 53°60' E 004°56'3012.5
2014-Aug-29 06:10N 53°31' E 004°47'813.2
2014-Aug-29 05:33N 53°23' E 004°42'1713.3
2014-Aug-29 04:18N 53°08' E 004°30'1012.7
2014-Aug-29 03:33N 52°60' E 004°22'1212.0
2014-Aug-29 02:33N 52°49' E 004°13'1211.5
2014-Aug-29 01:33N 52°40' E 004°01'2410.8
2014-Aug-28 23:20N 52°21' E 003°37'810.4
2014-Aug-28 22:33N 52°13' E 003°34'1010.0
2014-Aug-28 21:33N 52°05' E 003°25'3010.0
2014-Aug-28 18:33N 51°35' E 003°24'1414.1
2014-Aug-28 17:33N 51°25' E 003°40'6 5.6
2014-Aug-28 16:33N 51°21' E 003°46'0 0.0
2014-Aug-28 15:30N 51°21' E 003°46'0 0.0
2014-Aug-27 22:16N 51°21' E 003°46'0 0.0
2014-Aug-27 21:33N 51°21' E 003°46'7 7.0
2014-Aug-27 20:34N 51°26' E 003°39'2 1.8
2014-Aug-27 19:31N 51°25' E 003°37'0 0.0
2014-Aug-27 18:22N 51°25' E 003°37'0 0.0
2014-Aug-27 17:28N 51°25' E 003°37'0 0.0
2014-Aug-27 16:31N 51°25' E 003°37'0 0.0
2014-Aug-27 15:28N 51°25' E 003°37'0 0.1
2014-Aug-27 14:28N 51°25' E 003°37'0 0.0
2014-Aug-27 13:28N 51°25' E 003°37'0 0.0
2014-Aug-27 12:28N 51°25' E 003°37'0 0.0
2014-Aug-27 11:28N 51°25' E 003°37'0 0.0
2014-Aug-27 10:28N 51°25' E 003°37'0 0.0
2014-Aug-27 09:31N 51°25' E 003°37'0 0.1
2014-Aug-27 08:22N 51°25' E 003°37'0 0.0
2014-Aug-27 07:28N 51°25' E 003°37'0 0.0
2014-Aug-27 06:28N 51°25' E 003°37'0 0.0
2014-Aug-27 05:33N 51°25' E 003°37'0 0.0
2014-Aug-27 04:30N 51°25' E 003°37'0 0.0
2014-Aug-27 03:33N 51°25' E 003°37'0 0.1
2014-Aug-27 02:32N 51°25' E 003°37'0 0.0
2014-Aug-27 01:32N 51°25' E 003°37'0 0.1
2014-Aug-27 00:33N 51°25' E 003°37'6 6.0
2014-Aug-26 23:33N 51°22' E 003°45'1 0.1
2014-Aug-26 09:34N 51°21' E 003°46'6 5.9
2014-Aug-26 08:34N 51°25' E 003°40'8 8.1
2014-Aug-26 07:34N 51°21' E 003°51'1111.1
2014-Aug-26 06:33N 51°22' E 004°08'8 8.5
2014-Aug-26 05:33N 51°16' E 004°17'1 1.0
2014-Aug-26 04:33N 51°16' E 004°15'1 1.4
2014-Aug-26 03:32N 51°16' E 004°13'0 0.0
2014-Aug-25 13:05N 51°16' E 004°13'0 0.0
2014-Aug-25 12:33N 51°16' E 004°13'2 1.5
2014-Aug-25 11:30N 51°16' E 004°15'0 0.0
2014-Aug-24 14:10N 51°16' E 004°15'0 0.5
2014-Aug-24 13:33N 51°16' E 004°16'1 0.7
2014-Aug-24 12:33N 51°16' E 004°17'9 8.8
2014-Aug-24 11:33N 51°24' E 004°11'1010.5
2014-Aug-24 10:33N 51°22' E 003°54'1413.6
2014-Aug-24 09:33N 51°26' E 003°34'1413.8
2014-Aug-24 08:32N 51°38' E 003°21'48 9.7
2014-Aug-24 03:33N 51°59' E 002°10'8 8.6
2014-Aug-24 02:33N 52°07' E 002°06'8 8.3
2014-Aug-24 01:33N 52°15' E 002°08'7 7.2
2014-Aug-24 00:33N 52°22' E 002°10'6 6.4
2014-Aug-23 23:33N 52°28' E 002°14'  

Dump ship's entire track history